This is the latest recevied weather packets stored in our database for station/object KN4AN. If no packets are shown the sender has not sent any weather packets the latest 10 day(s).
| Time | Temp. | Humidity | Pressure | Rain* | Wind** | Luminosity | Snow |
|---|---|---|---|---|---|---|---|
| 1787768461 | 30° C | 51% | 1017.7 hPa | 0 mm | - | 686 W/m² | - |
| 1787768156 | 30° C | 49% | 1017.9 hPa | 0 mm | - | 681 W/m² | - |
| 1787767852 | 30° C | 50% | 1017.7 hPa | 0 mm | - | 699 W/m² | - |
| 1787767548 | 30° C | 49% | 1017.8 hPa | 0 mm | - | 660 W/m² | - |
| 1787767246 | 30° C | 49% | 1017.8 hPa | 0 mm | - | 701 W/m² | - |
| 1787766945 | 30° C | 51% | 1018.1 hPa | 0 mm | - | 725 W/m² | - |
| 1787766645 | 30° C | 49% | 1017.8 hPa | 0 mm | - | 733 W/m² | - |
| 1787766344 | 30° C | 50% | 1018.1 hPa | 0 mm | - | 717 W/m² | - |
| 1787766039 | 29.44° C | 51% | 1018 hPa | 0 mm | - | 728 W/m² | - |
| 1787765735 | 29.44° C | 51% | 1018.1 hPa | 0 mm | - | 734 W/m² | - |
| 1787765432 | 29.44° C | 51% | 1018.1 hPa | 0 mm | - | 724 W/m² | - |
| 1787765130 | 29.44° C | 52% | 1018.3 hPa | 0 mm | - | 742 W/m² | - |
| 1787764825 | 29.44° C | 50% | 1018.3 hPa | 0 mm | - | 749 W/m² | - |
| 1787764521 | 28.89° C | 52% | 1018.6 hPa | 0 mm | - | 743 W/m² | - |
| 1787764216 | 28.33° C | 53% | 1018.3 hPa | 0 mm | - | 770 W/m² | - |
| 1787763912 | 28.89° C | 51% | 1018.8 hPa | 0 mm | - | 623 W/m² | - |
| 1787763612 | 28.33° C | 54% | 1018.7 hPa | 0 mm | - | 763 W/m² | - |
| 1787763311 | 28.33° C | 52% | 1018.7 hPa | 0 mm | - | 769 W/m² | - |
| 1787763007 | 27.78° C | 52% | 1018.8 hPa | 0 mm | - | 769 W/m² | - |
| 1787762701 | 27.78° C | 52% | 1019.1 hPa | 0 mm | - | 720 W/m² | - |
| 1787762401 | 27.78° C | 53% | 1019.1 hPa | 0 mm | - | 745 W/m² | - |
| 1787762098 | 27.78° C | 52% | 1019.1 hPa | 0 mm | - | 747 W/m² | - |
| 1787761792 | 27.78° C | 53% | 1019.3 hPa | 0 mm | - | 743 W/m² | - |
| 1787761488 | 27.78° C | 54% | 1019.1 hPa | 0 mm | - | 737 W/m² | - |
| 1787761183 | 27.78° C | 54% | 1019.3 hPa | 0 mm | - | 691 W/m² | - |
* Rain latest hour (hover to see other rain measurements)
** Current wind speed in m/s (hover to see current wind gust speed)